Orbital Elements at Epoch 2459200.5 (2020-Dec-17.0) TDB
Reference: JPL 28 (heliocentric ecliptic J2000)
Element | Value | Uncertainty (1-sigma) | Units |
e | .108317393307959 | 2.0246e-08 | |
a | 2.397177690867334 | 7.8797e-09 | au |
q | 2.137521652096592 | 5.0008e-08 | au |
i | 5.994169349108303 | 1.2185e-06 | deg |
node | 346.2749500358464 | 8.2293e-06 | deg |
peri | 100.8906229202094 | 1.5547e-05 | deg |
M | 94.24327321993229 | 9.8416e-06 | deg |
tp | 2458845.607657633317 (2019-Dec-28.10765763) | 3.6806e-05 | TDB |
period | 1355.65371285284 3.71 | 6.6842e-06 1.83e-08 | d yr |
n | .2655545413897884 | 1.3093e-09 | deg/d |
Q | 2.656833729638076 | 8.7332e-09 | au |
|
| | Orbit Determination Parameters
Additional Information
|